SCP
0 0 0 0 0 0 0 0 0 0 0 0 0 0 0 0 0 0 0 0 0 1 2 1 0 0 0 0 0 1 0 1 1 1 1 1 1 2 2 2 2 2 2 0
-0 0 -0 0 0 0 0 0 0 0 0 0 0 0 0 0 0 0 0 0 1 1 1 1 1 0 0 0 0 1 1 1 1 1 2 1 1 1 1 1 2 2 0 0
-0 0 0 -0 0 0 0 0 0 0 0 0 0 0 0 0 0 0 0 0 0 0 1 1 1 1 0 0 1 1 1 1 1 1 1 1 1 0 0 1 0 0 0 0
0 0 0 -0 0 0 0 0 0 0 0 0 0 0 0 0 0 0 0 0 1 1 1 1 1 1 1 1 1 1 1 1 1 1 1 1 1 1 1 0 0 0 0 0
-0 -0 -0 0 0 0 0 0 0 0 0 0 0 0 0 0 0 0 0 0 1 1 1 1 1 1 1 1 1 1 1 1 1 1 1 1 1 0 0 0 0 0 0 0
-0 -0 -0 0 0 -0 0 0 0 0 0 0 0 0 0 0 0 0 0 0 0 1 1 1 1 1 1 1 1 1 1 1 1 1 1 1 0 0 0 0 0 0 0 0
0 0 0 0 0 0 0 0 0 0 0 0 0 0 0 0 0 0 0 0 0 0 1 1 1 1 1 1 0 0 0 0 0 0 0 0 0 0 0 0 0 0 0 0
-0 -0 -0 -0 -0 0 0 0 0 0 0 0 0 0 0 0 0 0 0 0 0 0 1 1 1 1 1 1 0 0 0 0 0 0 0 0 0 0 0 0 0 0 0 0
0 -0 0 -0 -0 0 0 0 0 0 0 0 0 0 0 0 0 0 0 0 0 0 0 0 1 0 0 0 0 0 0 0 0 0 0 0 0 0 0 0 0 0 0 0
0 -0 0 -0 -0 0 0 0 0 0 0 0 0 0 0 0 0 0 0 0 0 1 1 1 1 0 0 0 0 0 0 0 0 0 0 0 0 0 0 0 0 0 0 0
0 0 -0 -0 0 0 0 0 0 0 0 0 0 0 0 0 0 0 0 0 0 1 0 0 0 0 0 0 0 0 0 0 0 0 0 0 0 0 0 0 0 0 0 0
0 -0 -0 -0 0 0 0 0 0 0 0 0 0 0 0 0 0 0 0 0 0 0 1 1 0 0 0 0 0 0 0 0 0 0 0 0 0 0 0 0 0 0 0 0
-0 0 -0 0 0 -0 0 0 0 0 0 0 0 0 0 0 0 0 0 0 0 0 0 0 0 0 0 0 0 0 0 0 0 0 0 0 0 0 0 0 0 0 0 0
-0 0 -0 0 0 0 0 0 0 0 0 0 0 0 0 0 0 0 0 0 0 0 0 0 0 1 1 1 0 0 0 0 0 0 0 0 0 0 0 0 0 0 0 0
-0 -0 -0 -0 0 0 0 0 0 0 0 0 0 0 0 0 0 0 0 0 0 0 0 0 1 1 1 0 0 0 0 0 0 0 0 0 0 0 0 0 0 0 0 0
-0 0 0 -0 0 0 0 0 0 0 0 0 0 0 0 0 0 0 0 0 0 0 0 0 0 0 0 0 0 0 0 0 0 0 0 0 0 0 0 0 0 0 0 0
-0 0 0 0 -0 -0 0 0 -0 0 -0 0 0 0 0 0 0 0 0 0 0 0 0 0 0 0 0 0 0 0 0 -0 0 0 0 0 0 0 0 0 0 0 0 0
-0 -0 0 0 0 0 0 0 0 0 0 0 0 0 0 0 0 0 0 0 0 0 0 0 0 0 0 0 0 0 0 0 0 0 0 0 0 0 -0 -0 0 0 0 0
-0 0 0 0 0 0 0 0 0 -0 0 0 0 0 0 0 0 0 0 0 0 0 0 0 0 0 0 0 0 0 0 0 0 0 0 0 0 0 0 0 0 0 0 0
0 -0 0 0 0 0 0 0 0 0 0 -0 0 0 0 -0 0 0 0 0 0 0 0 0 0 0 0 0 0 0 0 0 0 0 0 0 0 0 0 0 0 0 0 0
0 0 0 0 0 0 0 0 0 0 0 0 0 0 0 0 0 0 -0 0 0 0 0 0 0 0 0 0 0 0 0 0 0 0 -0 -0 0 0 0 0 0 0 0 0
0 0 0 0 0 0 0 0 0 0 0 0 0 0 0 0 -0 0 0 0 0 0 0 0 0 0 0 0 0 0 -0 0 0 -0 -0 -0 -0 0 0 0 0 0 0 0
0 -0 0 0 0 0 0 0 0 0 0 0 0 -0 -0 -0 -0 -0 -0 -0 0 0 0 0 0 0 0 0 0 -0 -0 -0 0 0 0 0 0 -0 0 0 0 0 0 0
0 0 -0 0 0 -0 0 0 0 0 0 0 0 -0 -0 -0 -0 -0 0 0 0 0 0 0 0 0 0 -0 -0 -0 -0 -0 -0 0 0 0 0 0 0 0 0 0 0 0
0 0 0 -0 0 0 0 0 0 0 0 0 -0 -0 -0 -0 -0 0 0 -0 0 0 0 0 0 -0 -0 -0 -0 -0 -0 -0 -0 -0 0 0 0 0 0 0 0 0 0 0
-0 0 0 -0 0 0 0 0 0 0 0 0 -0 -0 -0 -0 -0 -0 0 0 0 0 0 0 0 0 -0 -0 -0 -0 -0 -0 -0 -0 0 0 0 0 0 0 0 0 0 0
Wind_Speed_500mb
27 15 14 32 33 25 23 28 33 35 25 40 62 35 43 22 20 34 37 38 39 41 46 55 62 58 55 51 48 56 60 58 57 58 57 51 49 46 45 41 42 37 31 26
12 13 21 30 33 37 28 17 27 26 50 28 36 44 34 49 21 30 30 37 44 46 53 57 58 58 53 50 54 63 63 62 65 63 59 55 53 50 47 44 41 46 47 43
20 6 6 32 30 42 35 18 17 7 35 30 26 32 34 42 46 33 24 38 46 58 64 66 68 63 58 55 57 66 69 67 62 62 57 58 54 48 47 47 41 40 40 41
13 7 16 29 30 38 31 34 19 14 17 22 29 11 34 35 31 27 34 34 44 49 51 58 67 68 62 62 59 61 63 60 60 63 60 61 60 52 38 28 32 36 37 30
5 19 28 13 31 35 22 11 16 13 7 12 25 9 17 23 34 37 34 39 41 46 53 56 60 62 61 59 59 62 63 65 67 64 69 61 48 33 27 31 36 39 32 28
24 10 8 8 18 33 14 23 9 5 7 17 23 20 21 30 53 42 31 36 39 45 46 46 46 43 50 54 59 64 68 68 62 61 65 57 48 46 45 45 28 28 27 21
4 17 9 10 6 15 28 17 10 9 11 10 15 17 7 34 23 34 33 36 39 44 50 51 55 58 60 59 59 61 61 63 59 53 58 66 61 61 52 51 33 29 37 30
4 7 25 28 21 17 26 14 4 10 14 18 11 13 4 4 18 27 39 38 38 43 46 52 53 54 57 61 59 56 57 59 60 55 45 41 44 43 51 49 41 32 26 34
6 2 11 19 12 22 14 14 1 2 2 17 11 3 4 8 12 13 26 18 30 39 42 43 45 56 59 60 58 55 50 50 48 42 42 38 39 38 33 27 36 37 49 45
7 3 10 14 10 5 12 15 9 4 13 13 9 5 9 6 11 7 11 26 22 25 35 40 41 48 49 49 42 34 34 39 41 46 42 39 35 33 34 38 45 47 37 32
7 7 8 12 18 21 10 12 4 3 5 2 11 7 4 7 12 10 6 3 16 25 33 35 33 36 37 32 30 33 34 33 30 24 23 27 32 39 44 44 49 38 33 35
6 8 8 24 5 25 20 12 14 4 4 4 3 9 9 9 10 13 17 20 10 13 21 27 35 38 36 34 30 29 29 24 20 25 31 41 36 38 44 39 35 38 38 38
7 6 4 12 13 7 18 9 5 7 1 2 4 8 13 9 9 12 16 19 23 16 20 24 31 38 36 31 30 30 24 26 27 25 37 38 41 38 45 44 40 39 35 30
7 7 7 2 5 8 13 17 16 5 5 8 3 2 11 4 11 14 16 16 21 27 28 30 34 35 34 34 35 33 30 31 27 26 33 39 45 44 47 41 42 38 28 17
8 10 16 11 9 9 17 20 19 12 4 9 5 12 5 8 12 15 17 8 9 22 27 29 35 44 51 48 44 40 35 29 23 19 27 38 45 54 53 50 40 28 19 15
21 5 7 11 15 14 20 24 22 11 5 12 4 8 7 8 10 18 22 19 15 17 22 29 39 52 55 54 53 43 35 19 17 28 35 44 51 49 49 38 29 19 11 11
12 9 10 4 10 12 13 24 21 16 15 13 11 2 19 7 13 12 17 26 28 31 36 40 42 51 56 62 58 47 35 33 30 36 35 33 34 29 27 23 17 9 10 10
13 12 5 6 6 7 8 13 17 22 11 11 11 16 13 20 24 20 14 26 33 39 45 49 56 60 61 61 51 68 42 37 45 40 35 27 32 27 19 14 8 4 7 6
27 8 6 6 5 6 5 16 11 7 17 11 17 23 28 33 27 26 20 27 40 47 51 57 57 55 57 71 83 60 48 44 43 47 45 38 26 20 12 5 2 1 3 5
18 19 8 7 6 3 10 25 28 13 9 6 11 25 33 34 13 5 17 28 43 51 51 52 50 48 59 70 69 54 54 51 47 43 35 28 21 13 8 8 8 7 7 14
8 5 5 7 7 4 22 31 9 10 5 32 14 26 38 8 8 36 32 38 43 49 53 54 54 59 59 58 52 55 56 53 45 37 30 21 15 10 10 11 13 11 12 15
3 3 1 3 6 4 33 10 17 22 29 30 19 31 32 35 50 48 45 50 48 51 52 54 58 57 51 46 46 50 43 37 29 28 29 25 22 18 18 13 14 16 18 21
6 7 7 9 6 4 18 17 39 32 31 20 31 38 43 47 50 49 54 58 54 53 55 57 60 60 52 44 31 30 32 34 30 24 23 28 23 24 23 20 22 22 24 23
14 16 5 9 8 29 6 37 45 36 24 19 40 52 51 60 51 51 58 64 62 61 60 60 58 56 51 36 30 27 32 29 26 27 25 24 23 22 22 21 24 25 25 22
6 20 15 7 17 27 6 55 43 36 9 35 45 56 56 59 56 57 63 67 67 62 57 51 49 48 47 43 40 37 34 31 34 33 32 28 23 23 24 23 24 26 29 27
6 1 4 5 17 8 31 54 32 14 8 25 45 46 46 55 70 64 63 59 57 53 46 45 46 47 47 42 42 40 36 31 30 33 30 27 25 24 23 23 27 30 29 26
Wind_Direction_500mb
197 212 218 208 212 231 210 211 228 222 217 210 220 218 233 263 230 233 214 203 195 188 185 191 196 194 197 203 205 207 206 199 197 195 195 196 201 203 205 205 202 203 208 215
185 228 245 237 210 229 241 249 206 224 217 211 211 227 227 243 251 236 207 187 185 181 184 182 183 186 190 199 208 210 208 206 204 206 205 206 207 209 215 209 210 220 219 221
234 209 175 252 206 220 233 254 212 285 191 203 194 216 219 234 241 257 220 211 194 188 183 183 184 187 191 199 209 211 210 209 209 210 210 211 211 214 212 217 208 198 205 215
243 235 263 250 218 215 233 213 248 265 187 194 201 192 214 210 214 228 215 200 196 191 190 185 185 191 199 203 206 210 209 206 209 210 213 216 214 209 214 206 199 205 212 215
312 177 190 231 210 205 235 210 230 283 254 207 194 249 167 205 215 216 208 195 196 195 190 189 194 197 197 198 200 202 204 207 211 213 215 216 213 219 243 225 228 225 235 221
249 222 176 235 216 219 141 240 256 222 223 204 181 222 182 194 209 207 203 189 191 194 194 192 191 189 191 195 198 201 204 208 212 214 216 222 234 245 246 241 240 240 219 195
187 207 193 204 233 223 216 185 148 159 187 189 157 205 323 204 207 211 205 188 188 189 192 191 190 194 195 199 201 203 208 215 218 224 239 240 244 249 248 243 219 202 172 175
265 186 179 196 198 187 193 193 172 160 181 160 139 211 127 254 207 215 211 205 185 186 191 196 197 199 200 201 204 209 215 224 238 248 241 228 228 234 239 238 229 205 218 191
303 93 186 194 184 177 171 206 318 70 39 165 172 202 160 83 136 177 188 196 189 184 187 188 190 201 207 215 221 227 227 226 227 229 240 246 247 235 219 201 187 195 178 181
312 299 185 185 183 219 221 150 197 202 165 172 149 174 105 59 70 80 171 200 205 188 183 186 191 198 206 213 213 219 226 228 228 238 243 243 232 215 194 184 190 189 186 189
294 286 132 178 208 187 168 190 80 51 326 143 141 141 69 357 339 335 329 225 213 205 195 182 182 187 195 202 219 223 219 218 217 225 223 201 197 191 186 180 184 192 183 175
233 300 195 204 252 220 203 190 207 260 146 54 21 121 110 52 14 344 326 309 261 206 201 190 188 189 191 198 202 195 191 191 193 186 174 167 167 180 177 178 198 179 178 178
353 247 162 143 130 162 209 185 153 114 58 52 15 117 165 54 30 13 332 298 272 215 203 188 180 180 178 174 173 170 175 179 175 185 185 194 189 184 190 194 174 172 178 183
208 284 330 345 132 170 188 190 185 189 162 146 236 226 206 356 28 10 346 301 248 217 188 181 178 170 160 169 162 158 166 177 184 184 202 208 203 195 181 174 170 171 176 191
34 5 340 316 256 252 204 182 175 201 134 195 188 231 79 36 30 11 6 13 176 191 185 174 167 163 165 162 159 157 162 164 182 202 209 193 164 166 163 161 161 171 188 218
346 3 309 310 340 217 213 193 189 188 184 254 239 246 134 94 76 41 35 52 107 140 160 162 170 169 165 160 162 167 157 159 201 195 175 150 143 145 149 157 161 180 207 253
304 329 343 316 17 141 221 215 204 195 208 217 218 270 163 109 78 44 62 75 70 87 112 142 156 159 163 170 170 138 117 103 109 107 122 138 153 151 149 162 172 205 250 279
276 316 293 303 324 183 57 28 231 234 244 181 113 138 146 124 93 64 69 107 104 108 115 125 134 143 150 143 123 122 124 134 135 133 149 157 171 176 173 181 167 205 257 296
218 266 297 309 274 329 78 26 355 292 269 198 174 144 135 128 104 54 72 106 118 122 119 122 130 136 138 141 141 138 135 148 149 151 158 159 161 153 151 132 110 306 338 25
189 240 329 324 295 351 34 328 313 272 255 351 179 157 145 163 126 105 106 117 120 124 129 133 141 143 145 146 152 148 146 149 153 150 152 149 137 107 123 137 109 87 46 20
145 181 215 238 270 110 348 332 311 202 15 331 241 180 154 109 60 141 138 123 127 128 133 133 134 138 140 151 152 142 143 140 142 142 142 142 147 127 131 91 73 52 38 36
72 301 282 273 263 111 6 27 347 326 307 309 217 168 136 118 126 133 134 128 129 127 125 128 126 127 128 137 145 137 131 118 119 126 123 122 120 116 101 94 75 63 52 47
56 11 321 354 30 9 337 346 323 312 291 290 163 144 140 136 135 136 133 136 130 121 125 128 129 129 125 124 125 127 131 141 143 140 131 122 112 109 97 86 80 71 64 61
329 3 278 357 341 345 57 356 343 335 311 221 175 156 149 140 140 141 137 130 128 132 133 133 134 135 137 142 143 147 140 138 133 126 121 120 116 110 102 91 77 66 61 54
300 314 328 311 2 353 262 336 336 341 41 140 150 151 147 145 146 143 135 136 140 140 140 142 139 136 134 135 134 132 131 135 133 133 128 119 117 105 91 80 73 64 62 57
236 90 355 301 328 293 302 326 346 354 107 139 144 140 145 150 147 147 144 144 141 140 138 135 135 138 136 138 131 127 125 129 128 124 123 121 111 105 95 85 73 61 52 40
Wind_Speed_850mb
27 15 14 32 33 25 23 28 33 35 25 40 62 35 43 22 20 34 37 38 39 41 46 55 62 58 55 51 48 56 60 58 57 58 57 51 49 46 45 41 42 37 31 26
12 13 21 30 33 37 28 17 27 26 50 28 36 44 34 49 21 30 30 37 44 46 53 57 58 58 53 50 54 63 63 62 65 63 59 55 53 50 47 44 41 46 47 43
20 6 6 32 30 42 35 18 17 7 35 30 26 32 34 42 46 33 24 38 46 58 64 66 68 63 58 55 57 66 69 67 62 62 57 58 54 48 47 47 41 40 40 41
13 7 16 29 30 38 31 34 19 14 17 22 29 11 34 35 31 27 34 34 44 49 51 58 67 68 62 62 59 61 63 60 60 63 60 61 60 52 38 28 32 36 37 30
5 19 28 13 31 35 22 11 16 13 7 12 25 9 17 23 34 37 34 39 41 46 53 56 60 62 61 59 59 62 63 65 67 64 69 61 48 33 27 31 36 39 32 28
24 10 8 8 18 33 14 23 9 5 7 17 23 20 21 30 53 42 31 36 39 45 46 46 46 43 50 54 59 64 68 68 62 61 65 57 48 46 45 45 28 28 27 21
4 17 9 10 6 15 28 17 10 9 11 10 15 17 7 34 23 34 33 36 39 44 50 51 55 58 60 59 59 61 61 63 59 53 58 66 61 61 52 51 33 29 37 30
4 7 25 28 21 17 26 14 4 10 14 18 11 13 4 4 18 27 39 38 38 43 46 52 53 54 57 61 59 56 57 59 60 55 45 41 44 43 51 49 41 32 26 34
6 2 11 19 12 22 14 14 1 2 2 17 11 3 4 8 12 13 26 18 30 39 42 43 45 56 59 60 58 55 50 50 48 42 42 38 39 38 33 27 36 37 49 45
7 3 10 14 10 5 12 15 9 4 13 13 9 5 9 6 11 7 11 26 22 25 35 40 41 48 49 49 42 34 34 39 41 46 42 39 35 33 34 38 45 47 37 32
7 7 8 12 18 21 10 12 4 3 5 2 11 7 4 7 12 10 6 3 16 25 33 35 33 36 37 32 30 33 34 33 30 24 23 27 32 39 44 44 49 38 33 35
6 8 8 24 5 25 20 12 14 4 4 4 3 9 9 9 10 13 17 20 10 13 21 27 35 38 36 34 30 29 29 24 20 25 31 41 36 38 44 39 35 38 38 38
7 6 4 12 13 7 18 9 5 7 1 2 4 8 13 9 9 12 16 19 23 16 20 24 31 38 36 31 30 30 24 26 27 25 37 38 41 38 45 44 40 39 35 30
7 7 7 2 5 8 13 17 16 5 5 8 3 2 11 4 11 14 16 16 21 27 28 30 34 35 34 34 35 33 30 31 27 26 33 39 45 44 47 41 42 38 28 17
8 10 16 11 9 9 17 20 19 12 4 9 5 12 5 8 12 15 17 8 9 22 27 29 35 44 51 48 44 40 35 29 23 19 27 38 45 54 53 50 40 28 19 15
21 5 7 11 15 14 20 24 22 11 5 12 4 8 7 8 10 18 22 19 15 17 22 29 39 52 55 54 53 43 35 19 17 28 35 44 51 49 49 38 29 19 11 11
12 9 10 4 10 12 13 24 21 16 15 13 11 2 19 7 13 12 17 26 28 31 36 40 42 51 56 62 58 47 35 33 30 36 35 33 34 29 27 23 17 9 10 10
13 12 5 6 6 7 8 13 17 22 11 11 11 16 13 20 24 20 14 26 33 39 45 49 56 60 61 61 51 68 42 37 45 40 35 27 32 27 19 14 8 4 7 6
27 8 6 6 5 6 5 16 11 7 17 11 17 23 28 33 27 26 20 27 40 47 51 57 57 55 57 71 83 60 48 44 43 47 45 38 26 20 12 5 2 1 3 5
18 19 8 7 6 3 10 25 28 13 9 6 11 25 33 34 13 5 17 28 43 51 51 52 50 48 59 70 69 54 54 51 47 43 35 28 21 13 8 8 8 7 7 14
8 5 5 7 7 4 22 31 9 10 5 32 14 26 38 8 8 36 32 38 43 49 53 54 54 59 59 58 52 55 56 53 45 37 30 21 15 10 10 11 13 11 12 15
3 3 1 3 6 4 33 10 17 22 29 30 19 31 32 35 50 48 45 50 48 51 52 54 58 57 51 46 46 50 43 37 29 28 29 25 22 18 18 13 14 16 18 21
6 7 7 9 6 4 18 17 39 32 31 20 31 38 43 47 50 49 54 58 54 53 55 57 60 60 52 44 31 30 32 34 30 24 23 28 23 24 23 20 22 22 24 23
14 16 5 9 8 29 6 37 45 36 24 19 40 52 51 60 51 51 58 64 62 61 60 60 58 56 51 36 30 27 32 29 26 27 25 24 23 22 22 21 24 25 25 22
6 20 15 7 17 27 6 55 43 36 9 35 45 56 56 59 56 57 63 67 67 62 57 51 49 48 47 43 40 37 34 31 34 33 32 28 23 23 24 23 24 26 29 27
6 1 4 5 17 8 31 54 32 14 8 25 45 46 46 55 70 64 63 59 57 53 46 45 46 47 47 42 42 40 36 31 30 33 30 27 25 24 23 23 27 30 29 26
Wind_Direction_850mb
197 212 218 208 212 231 210 211 228 222 217 210 220 218 233 263 230 233 214 203 195 188 185 191 196 194 197 203 205 207 206 199 197 195 195 196 201 203 205 205 202 203 208 215
185 228 245 237 210 229 241 249 206 224 217 211 211 227 227 243 251 236 207 187 185 181 184 182 183 186 190 199 208 210 208 206 204 206 205 206 207 209 215 209 210 220 219 221
234 209 175 252 206 220 233 254 212 285 191 203 194 216 219 234 241 257 220 211 194 188 183 183 184 187 191 199 209 211 210 209 209 210 210 211 211 214 212 217 208 198 205 215
243 235 263 250 218 215 233 213 248 265 187 194 201 192 214 210 214 228 215 200 196 191 190 185 185 191 199 203 206 210 209 206 209 210 213 216 214 209 214 206 199 205 212 215
312 177 190 231 210 205 235 210 230 283 254 207 194 249 167 205 215 216 208 195 196 195 190 189 194 197 197 198 200 202 204 207 211 213 215 216 213 219 243 225 228 225 235 221
249 222 176 235 216 219 141 240 256 222 223 204 181 222 182 194 209 207 203 189 191 194 194 192 191 189 191 195 198 201 204 208 212 214 216 222 234 245 246 241 240 240 219 195
187 207 193 204 233 223 216 185 148 159 187 189 157 205 323 204 207 211 205 188 188 189 192 191 190 194 195 199 201 203 208 215 218 224 239 240 244 249 248 243 219 202 172 175
265 186 179 196 198 187 193 193 172 160 181 160 139 211 127 254 207 215 211 205 185 186 191 196 197 199 200 201 204 209 215 224 238 248 241 228 228 234 239 238 229 205 218 191
303 93 186 194 184 177 171 206 318 70 39 165 172 202 160 83 136 177 188 196 189 184 187 188 190 201 207 215 221 227 227 226 227 229 240 246 247 235 219 201 187 195 178 181
312 299 185 185 183 219 221 150 197 202 165 172 149 174 105 59 70 80 171 200 205 188 183 186 191 198 206 213 213 219 226 228 228 238 243 243 232 215 194 184 190 189 186 189
294 286 132 178 208 187 168 190 80 51 326 143 141 141 69 357 339 335 329 225 213 205 195 182 182 187 195 202 219 223 219 218 217 225 223 201 197 191 186 180 184 192 183 175
233 300 195 204 252 220 203 190 207 260 146 54 21 121 110 52 14 344 326 309 261 206 201 190 188 189 191 198 202 195 191 191 193 186 174 167 167 180 177 178 198 179 178 178
353 247 162 143 130 162 209 185 153 114 58 52 15 117 165 54 30 13 332 298 272 215 203 188 180 180 178 174 173 170 175 179 175 185 185 194 189 184 190 194 174 172 178 183
208 284 330 345 132 170 188 190 185 189 162 146 236 226 206 356 28 10 346 301 248 217 188 181 178 170 160 169 162 158 166 177 184 184 202 208 203 195 181 174 170 171 176 191
34 5 340 316 256 252 204 182 175 201 134 195 188 231 79 36 30 11 6 13 176 191 185 174 167 163 165 162 159 157 162 164 182 202 209 193 164 166 163 161 161 171 188 218
346 3 309 310 340 217 213 193 189 188 184 254 239 246 134 94 76 41 35 52 107 140 160 162 170 169 165 160 162 167 157 159 201 195 175 150 143 145 149 157 161 180 207 253
304 329 343 316 17 141 221 215 204 195 208 217 218 270 163 109 78 44 62 75 70 87 112 142 156 159 163 170 170 138 117 103 109 107 122 138 153 151 149 162 172 205 250 279
276 316 293 303 324 183 57 28 231 234 244 181 113 138 146 124 93 64 69 107 104 108 115 125 134 143 150 143 123 122 124 134 135 133 149 157 171 176 173 181 167 205 257 296
218 266 297 309 274 329 78 26 355 292 269 198 174 144 135 128 104 54 72 106 118 122 119 122 130 136 138 141 141 138 135 148 149 151 158 159 161 153 151 132 110 306 338 25
189 240 329 324 295 351 34 328 313 272 255 351 179 157 145 163 126 105 106 117 120 124 129 133 141 143 145 146 152 148 146 149 153 150 152 149 137 107 123 137 109 87 46 20
145 181 215 238 270 110 348 332 311 202 15 331 241 180 154 109 60 141 138 123 127 128 133 133 134 138 140 151 152 142 143 140 142 142 142 142 147 127 131 91 73 52 38 36
72 301 282 273 263 111 6 27 347 326 307 309 217 168 136 118 126 133 134 128 129 127 125 128 126 127 128 137 145 137 131 118 119 126 123 122 120 116 101 94 75 63 52 47
56 11 321 354 30 9 337 346 323 312 291 290 163 144 140 136 135 136 133 136 130 121 125 128 129 129 125 124 125 127 131 141 143 140 131 122 112 109 97 86 80 71 64 61
329 3 278 357 341 345 57 356 343 335 311 221 175 156 149 140 140 141 137 130 128 132 133 133 134 135 137 142 143 147 140 138 133 126 121 120 116 110 102 91 77 66 61 54
300 314 328 311 2 353 262 336 336 341 41 140 150 151 147 145 146 143 135 136 140 140 140 142 139 136 134 135 134 132 131 135 133 133 128 119 117 105 91 80 73 64 62 57
236 90 355 301 328 293 302 326 346 354 107 139 144 140 145 150 147 147 144 144 141 140 138 135 135 138 136 138 131 127 125 129 128 124 123 121 111 105 95 85 73 61 52 40